Regional Weather Roundup
Issued by NWS

Home | Current Version | Previous Version | Graphics & Text | Print | Product List | Glossary On
Versions: 1 2 3 4 5 6 7 8 9 10 11 12 13 14 15 16 17 18 19 20 21 22 23 24 25 26 27 28 29 30 31 32 33 34 35 36 37 38 39 40 41 42 43 44 45 46 47 48 49 50
000
ASUS43 KBIS 201502
RWRND

NORTH DAKOTA REGIONAL WEATHER ROUNDUP
NATIONAL WEATHER SERVICE BISMARCK ND
900 AM CST SAT JAN 20 2018

NOTE: "FAIR" INDICATES FEW OR NO CLOUDS BELOW 12,000 FEET WITH NO
SIGNIFICANT WEATHER AND/OR OBSTRUCTIONS TO VISIBILITY.


NDZ001>003-009>011-017-201600-
NORTHWEST NORTH DAKOTA

CITY           SKY/WX    TMP DP  RH WIND       PRES   REMARKS
WILLISTON      CLEAR     25  18  74 SW9       29.79S WCI  15
MINOT          PTCLDY    32  23  69 W10       29.76R
MINOT AFB      PTCLDY    27  21  80 W8        29.75R WCI  18
$$

NDZ018>021-031>035-040>046-201600-
SOUTHWEST NORTH DAKOTA

CITY           SKY/WX    TMP DP  RH WIND       PRES   REMARKS
BISMARCK       MOCLDY    34  30  85 W8        29.84R
DICKINSON      MOCLDY    30  24  78 SW12      29.81R
GARRISON         N/A     27  23  85 W7        29.79R WCI  19
HETTINGER ARPT CLOUDY    31  27  85 NW7       29.86R
$$

NDZ004>008-012>016-024-026-027-054-201600-
NORTHEAST NORTH DAKOTA

CITY           SKY/WX    TMP DP  RH WIND       PRES   REMARKS
GRAND FORKS    MOCLDY    25  22  88 S6        29.78R WCI  18
GRND FRKS AFB  FAIR      28  23  83 W5        29.78R
DEVILS LAKE    FAIR      25  22  88 W10       29.78R WCI  15
$$

NDZ022-023-025-028>030-036>039-047>053-201600-
SOUTHEAST NORTH DAKOTA

CITY           SKY/WX    TMP DP  RH WIND       PRES   REMARKS
FARGO          CLOUDY    29  26  89 SW9       29.82R
JAMESTOWN      CLOUDY    33  28  81 W10       29.80R
$$





USA.gov is the U.S. government's official web portal to all federal, state and local government web resources and services.